"Figure 2f. Total aerosol particle concentration, dN, determined using a GRIMM optical particle counter (OPC; 0.25 � 32 �m particle diameter).",
,
,
,
Time,"Particle concentration, dN (cm^-3)"
25/10/2018 09:40,487.335
25/10/2018 09:41,484.364
25/10/2018 09:42,496.701
25/10/2018 09:43,494.536
25/10/2018 09:44,502.827
25/10/2018 09:45,493.794
25/10/2018 09:46,505.311
25/10/2018 09:47,484.981
25/10/2018 09:48,481.029
25/10/2018 09:49,476.841
25/10/2018 09:50,463.905
25/10/2018 09:51,481.315
25/10/2018 09:52,470.958
25/10/2018 09:53,467.41
25/10/2018 09:54,464.19
25/10/2018 09:55,463.017
25/10/2018 09:56,458.877
25/10/2018 09:57,466.433
25/10/2018 09:58,468.099
25/10/2018 09:59,456.696
25/10/2018 10:00,466.142
25/10/2018 10:01,461.781
25/10/2018 10:02,466.787
25/10/2018 10:03,468.128
25/10/2018 10:04,467.072
25/10/2018 10:05,473.002
25/10/2018 10:06,462.409
25/10/2018 10:07,473.515
25/10/2018 10:08,463.883
25/10/2018 10:09,470.526
25/10/2018 10:10,471.548
25/10/2018 10:11,495.221
25/10/2018 10:12,456.806
25/10/2018 10:13,455.087
25/10/2018 10:14,457.684
25/10/2018 10:15,456.079
25/10/2018 10:16,450.093
25/10/2018 10:17,444.308
25/10/2018 10:18,457.053
25/10/2018 10:19,456.394
25/10/2018 10:20,514.564
25/10/2018 10:21,473.417
25/10/2018 10:22,445.61
25/10/2018 10:23,456.59
25/10/2018 10:24,438.049
25/10/2018 10:25,450.627
25/10/2018 10:26,445.876
25/10/2018 10:27,449.331
25/10/2018 10:28,440.587
25/10/2018 10:29,477.803
25/10/2018 10:30,447.785
25/10/2018 10:31,438.581
25/10/2018 10:32,520.763
25/10/2018 10:33,455.335
25/10/2018 10:34,456.592
25/10/2018 10:35,451.369
25/10/2018 10:36,454.325
25/10/2018 10:37,464.768
25/10/2018 10:38,454.516
25/10/2018 10:39,450.63
25/10/2018 10:40,450.938
25/10/2018 10:41,453.697
25/10/2018 10:42,458.314
25/10/2018 10:43,471.879
25/10/2018 10:44,478.325
25/10/2018 10:45,470.179
25/10/2018 10:46,522.866
25/10/2018 10:47,1086.963
25/10/2018 10:48,561.888
25/10/2018 10:49,529.534
25/10/2018 10:50,521.274
25/10/2018 10:51,518.266
25/10/2018 10:52,523.196
25/10/2018 10:53,514.117
25/10/2018 10:54,502.454
25/10/2018 10:55,489.906
25/10/2018 10:56,535.096
25/10/2018 10:57,507.253
25/10/2018 10:58,511.103
25/10/2018 10:59,517.14
25/10/2018 11:00,527.917
25/10/2018 11:01,539.54
25/10/2018 11:02,548.955
25/10/2018 11:03,541.841
25/10/2018 11:04,588.101
25/10/2018 11:05,629.165
25/10/2018 11:06,660.428
25/10/2018 11:07,635.724
25/10/2018 11:08,620.261
25/10/2018 11:09,612.082
25/10/2018 11:10,607.228
25/10/2018 11:11,647.202
25/10/2018 11:12,577.592
25/10/2018 11:13,555.135
25/10/2018 11:14,536.189
25/10/2018 11:15,580.064
25/10/2018 11:16,527.314
25/10/2018 11:17,520.046
25/10/2018 11:18,527.214
25/10/2018 11:19,532.017
25/10/2018 11:20,522.106
25/10/2018 11:21,532.276
25/10/2018 11:22,524.945
25/10/2018 11:23,529.196
25/10/2018 11:24,514.89
25/10/2018 11:25,515.74
25/10/2018 11:26,513.841
25/10/2018 11:27,520.925
25/10/2018 11:28,511.066
25/10/2018 11:29,543.214
25/10/2018 11:30,589.507
25/10/2018 11:31,611.772
25/10/2018 11:32,630.55
25/10/2018 11:33,656.987
25/10/2018 11:34,737.041
25/10/2018 11:35,765.478
25/10/2018 11:36,776.994
25/10/2018 11:37,866.435
25/10/2018 11:38,839.861
25/10/2018 11:39,854.031
25/10/2018 11:40,818.879
25/10/2018 11:41,817.648
25/10/2018 11:42,775.418
25/10/2018 11:43,1000.769
25/10/2018 11:44,738.658
25/10/2018 11:45,748.354
25/10/2018 11:46,693.573
25/10/2018 11:47,679.288
25/10/2018 11:48,670.271
25/10/2018 11:49,640.566
25/10/2018 11:50,736.465
25/10/2018 11:51,613.575
25/10/2018 11:52,595.384
25/10/2018 11:53,865.264
25/10/2018 11:54,892.696
25/10/2018 11:55,567.99
25/10/2018 11:56,575.849
25/10/2018 11:57,582.727
25/10/2018 11:58,554.992
25/10/2018 11:59,525.335
25/10/2018 12:00,516.168
25/10/2018 12:01,531.466
25/10/2018 12:02,530.246
25/10/2018 12:03,514.391
25/10/2018 12:04,524.21
25/10/2018 12:05,525.739
25/10/2018 12:06,593.494
25/10/2018 12:07,574.618
25/10/2018 12:08,567.104
25/10/2018 12:09,544.84
25/10/2018 12:10,568.731
25/10/2018 12:11,551.565
25/10/2018 12:12,540.499
25/10/2018 12:13,546.276
25/10/2018 12:14,614.14
25/10/2018 12:15,597.268
25/10/2018 12:16,604.354
25/10/2018 12:17,602.575
25/10/2018 12:18,600.862
25/10/2018 12:19,605.567
25/10/2018 12:20,603.758
25/10/2018 12:21,602.251
25/10/2018 12:22,589.536
25/10/2018 12:23,598.836
25/10/2018 12:24,598.659
25/10/2018 12:25,599.889
25/10/2018 12:26,640.079
25/10/2018 12:27,651.176
25/10/2018 12:28,687.735
25/10/2018 12:29,659.618
25/10/2018 12:30,669.408
25/10/2018 12:31,677.461
25/10/2018 12:32,904.324
25/10/2018 12:33,741.959
25/10/2018 12:34,689.407
25/10/2018 12:35,707.984
25/10/2018 12:36,731.695
25/10/2018 12:37,740.686
25/10/2018 12:38,740.878
25/10/2018 12:39,768.419
25/10/2018 12:40,780.355
25/10/2018 12:41,781.303
25/10/2018 12:42,801.781
25/10/2018 12:43,812.834
25/10/2018 12:44,886.217
25/10/2018 12:45,1282.144
25/10/2018 12:46,1080.415
25/10/2018 12:47,1382.926
25/10/2018 12:48,1200.806
25/10/2018 12:49,1023.447
25/10/2018 12:50,1024.57
25/10/2018 12:51,1030.599
25/10/2018 12:52,1050.847
25/10/2018 12:53,1050.517
25/10/2018 12:54,1026.293
25/10/2018 12:55,1032.23
25/10/2018 12:56,1033.752
25/10/2018 12:57,1023.94
25/10/2018 12:58,1018.768
25/10/2018 12:59,975.517
25/10/2018 13:00,1114.599
25/10/2018 13:01,1089.902
25/10/2018 13:02,970.163
25/10/2018 13:03,962.602
25/10/2018 13:04,974.313
25/10/2018 13:05,982.982
25/10/2018 13:06,957.735
25/10/2018 13:07,949.418
25/10/2018 13:08,926.061
25/10/2018 13:09,941.762
25/10/2018 13:10,888.086
25/10/2018 13:11,880.892
25/10/2018 13:12,866.622
25/10/2018 13:13,862.405
25/10/2018 13:14,834.485
25/10/2018 13:15,821.053
25/10/2018 13:16,828.679
25/10/2018 13:17,837.836
25/10/2018 13:18,814
25/10/2018 13:19,803.743
25/10/2018 13:20,992.689
25/10/2018 13:21,819.707
25/10/2018 13:22,803.345
25/10/2018 13:23,781.922
25/10/2018 13:24,755.243
25/10/2018 13:25,701.728
25/10/2018 13:26,704.415
25/10/2018 13:27,706.371
25/10/2018 13:28,957.613
25/10/2018 13:29,737.034
25/10/2018 13:30,730.59
25/10/2018 13:31,738.766
25/10/2018 13:32,743.056
25/10/2018 13:33,757.839
25/10/2018 13:34,807.303
25/10/2018 13:35,949.514
25/10/2018 13:36,820.193
25/10/2018 13:37,784.189
25/10/2018 13:38,760.726
25/10/2018 13:39,757.049
25/10/2018 13:40,757.403
25/10/2018 13:41,750.088
25/10/2018 13:42,746.509
25/10/2018 13:43,746.41
25/10/2018 13:44,811.074
25/10/2018 13:45,746.11
25/10/2018 13:46,740.488
25/10/2018 13:47,732.381
25/10/2018 13:48,725.397
25/10/2018 13:49,724.505
25/10/2018 13:50,719.102
25/10/2018 13:51,718.369
25/10/2018 13:52,714.518
25/10/2018 13:53,714.483
25/10/2018 13:54,729.945
25/10/2018 13:55,705.347
25/10/2018 13:56,691.353
25/10/2018 13:57,661.977
25/10/2018 13:58,675.41
25/10/2018 13:59,671.069
25/10/2018 14:00,716.363
25/10/2018 14:01,709.333
25/10/2018 14:02,726.67
25/10/2018 14:03,733.594
25/10/2018 14:04,779.146
25/10/2018 14:05,751.528
25/10/2018 14:06,752.272
25/10/2018 14:07,721.854
25/10/2018 14:08,723.87
25/10/2018 14:09,734.923
25/10/2018 14:10,737.893
25/10/2018 14:11,737.633
25/10/2018 14:12,734.881
25/10/2018 14:13,755.82
25/10/2018 14:14,776.904
25/10/2018 14:15,745.461
25/10/2018 14:16,737.492
25/10/2018 14:17,728.306
25/10/2018 14:18,710.349
25/10/2018 14:19,716.015
25/10/2018 14:20,686.797
25/10/2018 14:21,675.393
25/10/2018 14:22,675.467
25/10/2018 14:23,716.597
25/10/2018 14:24,665.232
25/10/2018 14:25,648.488
25/10/2018 14:26,666.049
25/10/2018 14:27,676.205
25/10/2018 14:28,667.13
25/10/2018 14:29,599.292
25/10/2018 14:30,591.724
25/10/2018 14:31,894.192
25/10/2018 14:32,728.285
25/10/2018 14:33,558.081
25/10/2018 14:34,501.766
25/10/2018 14:35,493.971
25/10/2018 14:36,530.589
25/10/2018 14:37,553.743
25/10/2018 14:38,611.436
25/10/2018 14:39,835.878
25/10/2018 14:40,630.29
25/10/2018 14:41,639.203
25/10/2018 14:42,553.729
25/10/2018 14:43,540.538
25/10/2018 14:44,548.403
25/10/2018 14:45,562.869
25/10/2018 14:46,565.162
25/10/2018 14:47,572.643
25/10/2018 14:48,568.704
25/10/2018 14:49,559.548
25/10/2018 14:50,550.239
25/10/2018 14:51,524.096
25/10/2018 14:52,528.78
25/10/2018 14:53,515.833
25/10/2018 14:54,505.407
25/10/2018 14:55,499.359
25/10/2018 14:56,502.16
25/10/2018 14:57,593.649
25/10/2018 14:58,534.798
25/10/2018 14:59,526.196
25/10/2018 15:00,535.479
25/10/2018 15:01,534.423
25/10/2018 15:02,534.949
25/10/2018 15:03,529.254
25/10/2018 15:04,618.891
25/10/2018 15:05,555.673
25/10/2018 15:06,494.217
25/10/2018 15:07,479.25
25/10/2018 15:08,499.852
25/10/2018 15:09,516.334
25/10/2018 15:10,515.759
25/10/2018 15:11,521.524
25/10/2018 15:12,542.177
25/10/2018 15:13,549.742
25/10/2018 15:14,634.429
25/10/2018 15:15,612.599
25/10/2018 15:16,548.576
25/10/2018 15:17,540.566
25/10/2018 15:18,534.705
25/10/2018 15:19,539.056
25/10/2018 15:20,541.016
25/10/2018 15:21,546.861
25/10/2018 15:22,575.378
25/10/2018 15:23,564.634
25/10/2018 15:24,604.357
25/10/2018 15:25,596.157
25/10/2018 15:26,586.926
25/10/2018 15:27,573.634
25/10/2018 15:28,573.297
25/10/2018 15:29,572.661
25/10/2018 15:30,567.526
25/10/2018 15:31,556.02
25/10/2018 15:32,582.638
25/10/2018 15:33,562.23
25/10/2018 15:34,546.231
25/10/2018 15:35,558.912
25/10/2018 15:36,580.791
25/10/2018 15:37,619.161
25/10/2018 15:38,559.034
25/10/2018 15:39,541.589
25/10/2018 15:40,529.115
25/10/2018 15:41,535.118
25/10/2018 15:42,542.446
25/10/2018 15:43,527.624
25/10/2018 15:44,509.053
25/10/2018 15:45,494.881
25/10/2018 15:46,488.222
25/10/2018 15:47,466.452
25/10/2018 15:48,440.306
25/10/2018 15:49,448.835
25/10/2018 15:50,458.739
25/10/2018 15:51,518.185
25/10/2018 15:52,452.048
25/10/2018 15:53,445.043
25/10/2018 15:54,438.912
25/10/2018 15:55,440.918
25/10/2018 15:56,426.739
25/10/2018 15:57,433.856
25/10/2018 15:58,448.955
25/10/2018 15:59,428.309
25/10/2018 16:00,429.64
25/10/2018 16:01,445.252
25/10/2018 16:02,432.177
25/10/2018 16:03,426.98
25/10/2018 16:04,426.033
25/10/2018 16:05,418.522
25/10/2018 16:06,391.786
25/10/2018 16:07,385.531
25/10/2018 16:08,375.537
25/10/2018 16:09,383.114
25/10/2018 16:10,385.62
25/10/2018 16:11,402.043
25/10/2018 16:12,402.982
25/10/2018 16:13,380.281
25/10/2018 16:14,376.791
25/10/2018 16:15,389.795
25/10/2018 16:16,379.747
25/10/2018 16:17,368.218
25/10/2018 16:18,357.773
25/10/2018 16:19,350.609
25/10/2018 16:20,339.308
25/10/2018 16:21,336.934
25/10/2018 16:22,326.848
25/10/2018 16:23,309.378
25/10/2018 16:24,308.841
25/10/2018 16:25,295.859
25/10/2018 16:26,314.413
25/10/2018 16:27,305.31
25/10/2018 16:28,322.067
25/10/2018 16:29,304.832
25/10/2018 16:30,295.911
25/10/2018 16:31,278.383
25/10/2018 16:32,280.275
25/10/2018 16:33,276.741
25/10/2018 16:34,276.159
25/10/2018 16:35,276.867
25/10/2018 16:36,279.124
25/10/2018 16:37,287.453
25/10/2018 16:38,274.393
25/10/2018 16:39,302.59
25/10/2018 16:40,291.653
25/10/2018 16:41,289.397
25/10/2018 16:42,296.076
25/10/2018 16:43,289.307
25/10/2018 16:44,268.908
25/10/2018 16:45,263.444
25/10/2018 16:46,253.059
25/10/2018 16:47,259.797
25/10/2018 16:48,252.458
25/10/2018 16:49,244.465
25/10/2018 16:50,248.997
25/10/2018 16:51,263.77
25/10/2018 16:52,275.641
25/10/2018 16:53,271.617
25/10/2018 16:54,268.464
25/10/2018 16:55,257.111
25/10/2018 16:56,267.34
25/10/2018 16:57,256.08
25/10/2018 16:58,257.784
25/10/2018 16:59,261.422
25/10/2018 17:00,253.617
25/10/2018 17:01,254.348
25/10/2018 17:02,254.791
25/10/2018 17:03,252.772
25/10/2018 17:04,255.865
25/10/2018 17:05,257.446
25/10/2018 17:06,275.725
25/10/2018 17:07,253.97
25/10/2018 17:08,259.853
25/10/2018 17:09,268.01
25/10/2018 17:10,254.501
25/10/2018 17:11,256.418
25/10/2018 17:12,259.417
25/10/2018 17:13,255.726
25/10/2018 17:14,263.217
25/10/2018 17:15,269.91
25/10/2018 17:16,264.652
25/10/2018 17:17,286.996
25/10/2018 17:18,276.767
25/10/2018 17:19,268.874
25/10/2018 17:20,260.319
25/10/2018 17:21,263.988
25/10/2018 17:22,267.546
25/10/2018 17:23,269.594
25/10/2018 17:24,263.969
25/10/2018 17:25,258.112
25/10/2018 17:26,260.584
25/10/2018 17:27,270.976
25/10/2018 17:28,274.504
25/10/2018 17:29,268.987
25/10/2018 17:30,272.054
25/10/2018 17:31,266.441
25/10/2018 17:32,268.657
25/10/2018 17:33,263.835
25/10/2018 17:34,266.165
25/10/2018 17:35,269.844
25/10/2018 17:36,259.376
25/10/2018 17:37,257.831
25/10/2018 17:38,261.241
25/10/2018 17:39,262.571
25/10/2018 17:40,264.018
25/10/2018 17:41,262.887
25/10/2018 17:42,259.571
25/10/2018 17:43,253.202
25/10/2018 17:44,258.763
25/10/2018 17:45,253.621
25/10/2018 17:46,255.789
25/10/2018 17:47,265.509
25/10/2018 17:48,261.469
25/10/2018 17:49,263.608
25/10/2018 17:50,261.923
25/10/2018 17:51,260.465
25/10/2018 17:52,268.37
25/10/2018 17:53,265.789
25/10/2018 17:54,268.029
25/10/2018 17:55,266.593
25/10/2018 17:56,255.342
25/10/2018 17:57,251.814
25/10/2018 17:58,247.146
25/10/2018 17:59,259.569
25/10/2018 18:00,262.598
25/10/2018 18:01,266.532
25/10/2018 18:02,256.369
25/10/2018 18:03,255.866
25/10/2018 18:04,259.734
25/10/2018 18:05,252.803
25/10/2018 18:06,260.936
25/10/2018 18:07,259.419
25/10/2018 18:08,253.541
25/10/2018 18:09,258.379
25/10/2018 18:10,261.121
25/10/2018 18:11,256.981
25/10/2018 18:12,255.472
25/10/2018 18:13,252.637
25/10/2018 18:14,244.053
25/10/2018 18:15,261.977
25/10/2018 18:16,260.674
25/10/2018 18:17,264.701
25/10/2018 18:18,264.572
25/10/2018 18:19,273.537
25/10/2018 18:20,267.834
25/10/2018 18:21,262.452
25/10/2018 18:22,259.545
25/10/2018 18:23,266.447
25/10/2018 18:24,267.178
25/10/2018 18:25,268.687
25/10/2018 18:26,265.256
25/10/2018 18:27,270.442
25/10/2018 18:28,257.829
25/10/2018 18:29,271.272
25/10/2018 18:30,275.745
25/10/2018 18:31,275.907
25/10/2018 18:32,267.862
25/10/2018 18:33,263.143
25/10/2018 18:34,260.226
25/10/2018 18:35,263.593
25/10/2018 18:36,272.73
25/10/2018 18:37,276.929
25/10/2018 18:38,271.057
25/10/2018 18:39,275.17
25/10/2018 18:40,272.785
25/10/2018 18:41,307.384
25/10/2018 18:42,287.758
25/10/2018 18:43,276.302
25/10/2018 18:44,263.751
25/10/2018 18:45,259.876
25/10/2018 18:46,266.322
25/10/2018 18:47,258.702
25/10/2018 18:48,263.603
25/10/2018 18:49,258.951
25/10/2018 18:50,266.743
25/10/2018 18:51,263.528
25/10/2018 18:52,270.38
25/10/2018 18:53,265.332
25/10/2018 18:54,268.726
25/10/2018 18:55,272.637
25/10/2018 18:56,266.127
25/10/2018 18:57,271.022
25/10/2018 18:58,269.218
25/10/2018 18:59,272.32
25/10/2018 19:00,270.033
25/10/2018 19:01,273.997
25/10/2018 19:02,260.632
25/10/2018 19:03,256.542
25/10/2018 19:04,264.514
25/10/2018 19:05,269.14
25/10/2018 19:06,263.973
25/10/2018 19:07,260.132
25/10/2018 19:08,261.976
25/10/2018 19:09,257.204
25/10/2018 19:10,270.228
25/10/2018 19:11,265.208
25/10/2018 19:12,265.861
25/10/2018 19:13,268.616
25/10/2018 19:14,278.075
25/10/2018 19:15,267.765
25/10/2018 19:16,266.747
25/10/2018 19:17,277.634
25/10/2018 19:18,277.815
25/10/2018 19:19,271.322
25/10/2018 19:20,272.943
25/10/2018 19:21,265.772
25/10/2018 19:22,276.8
25/10/2018 19:23,269.364
25/10/2018 19:24,273.76
25/10/2018 19:25,267.503
25/10/2018 19:26,269.89
25/10/2018 19:27,275.174
25/10/2018 19:28,276.99
25/10/2018 19:29,273.931
25/10/2018 19:30,279.486
25/10/2018 19:31,269.392
25/10/2018 19:32,270.833
25/10/2018 19:33,283.803
25/10/2018 19:34,270.499
25/10/2018 19:35,271.946
25/10/2018 19:36,265.683
25/10/2018 19:37,262.244
25/10/2018 19:38,259.343
25/10/2018 19:39,260.401
25/10/2018 19:40,270.398
25/10/2018 19:41,254.161
25/10/2018 19:42,268.196
25/10/2018 19:43,248.821
25/10/2018 19:44,254.193
25/10/2018 19:45,258.9
25/10/2018 19:46,246.582
25/10/2018 19:47,244.958
25/10/2018 19:48,249.222
25/10/2018 19:49,248.225
25/10/2018 19:50,247.905
25/10/2018 19:51,247.643
25/10/2018 19:52,240.202
25/10/2018 19:53,236.848
25/10/2018 19:54,227.288
25/10/2018 19:55,219.274
25/10/2018 19:56,229.859
25/10/2018 19:57,220.588
25/10/2018 19:58,218.985
25/10/2018 19:59,220.27
25/10/2018 20:00,221.94
25/10/2018 20:01,219.469
25/10/2018 20:02,213.811
25/10/2018 20:03,221.573
25/10/2018 20:04,215.316
25/10/2018 20:05,205.513
25/10/2018 20:06,198.635
25/10/2018 20:07,208.615
25/10/2018 20:08,210.574
25/10/2018 20:09,196.748
25/10/2018 20:10,193.952
25/10/2018 20:11,193.643
25/10/2018 20:12,194.202
25/10/2018 20:13,186.26
25/10/2018 20:14,182.532
25/10/2018 20:15,182.323
25/10/2018 20:16,187.056
25/10/2018 20:17,192.808
25/10/2018 20:18,185.093
25/10/2018 20:19,191.566
25/10/2018 20:20,181.035
25/10/2018 20:21,170.224
25/10/2018 20:22,175.86
25/10/2018 20:23,179.451
25/10/2018 20:24,170.734
25/10/2018 20:25,170.7
25/10/2018 20:26,174.726
25/10/2018 20:27,176.545
25/10/2018 20:28,171.458
25/10/2018 20:29,173.744
25/10/2018 20:30,175.12
25/10/2018 20:31,167.679
25/10/2018 20:32,168.779
25/10/2018 20:33,169.851
25/10/2018 20:34,162.921
25/10/2018 20:35,158.87
25/10/2018 20:36,165.302
25/10/2018 20:37,162.366
25/10/2018 20:38,164.185
25/10/2018 20:39,167.9
25/10/2018 20:40,166.236
25/10/2018 20:41,167.05
25/10/2018 20:42,167.269
25/10/2018 20:43,162.57
25/10/2018 20:44,162.463
25/10/2018 20:45,167.202
25/10/2018 20:46,174.56
25/10/2018 20:47,168.574
25/10/2018 20:48,172.394
25/10/2018 20:49,171.035
25/10/2018 20:50,173.475
25/10/2018 20:51,168.614
25/10/2018 20:52,168.355
25/10/2018 20:53,175.131
25/10/2018 20:54,174.304
25/10/2018 20:55,176.387
25/10/2018 20:56,174.521
25/10/2018 20:57,185.29
25/10/2018 20:58,193.965
25/10/2018 20:59,199.915
25/10/2018 21:00,187.552
25/10/2018 21:01,183.532
25/10/2018 21:02,182.846
25/10/2018 21:03,188.838
25/10/2018 21:04,183.147
25/10/2018 21:05,192.628
25/10/2018 21:06,188.149
25/10/2018 21:07,194.053
25/10/2018 21:08,193.446
25/10/2018 21:09,207.747
25/10/2018 21:10,240.462
25/10/2018 21:11,258.242
25/10/2018 21:12,241.979
25/10/2018 21:13,224.611
25/10/2018 21:14,204.106
25/10/2018 21:15,188.068
25/10/2018 21:16,189.408
25/10/2018 21:17,181.016
25/10/2018 21:18,185.206
25/10/2018 21:19,193.144
25/10/2018 21:20,207.184
25/10/2018 21:21,218.306
25/10/2018 21:22,210.518
25/10/2018 21:23,253.929
25/10/2018 21:24,308.229
25/10/2018 21:25,304.414
25/10/2018 21:26,279.183
25/10/2018 21:27,279.233
25/10/2018 21:28,278.881
25/10/2018 21:29,261.042
25/10/2018 21:30,263.664
25/10/2018 21:31,269.492
25/10/2018 21:32,269.441
25/10/2018 21:33,272.248
25/10/2018 21:34,265.774
25/10/2018 21:35,265.387
25/10/2018 21:36,281.533
25/10/2018 21:37,293.236
25/10/2018 21:38,297.063
25/10/2018 21:39,274.169
25/10/2018 21:40,267.215
25/10/2018 21:41,279.332
25/10/2018 21:42,304
25/10/2018 21:43,271.259
25/10/2018 21:44,206.617
25/10/2018 21:45,180.871
25/10/2018 21:46,176.313
25/10/2018 21:47,172.704
25/10/2018 21:48,172.016
25/10/2018 21:49,164.21
25/10/2018 21:50,157.246
25/10/2018 21:51,157.174
25/10/2018 21:52,154.995
25/10/2018 21:53,155.498
25/10/2018 21:54,155.711
25/10/2018 21:55,159.789
25/10/2018 21:56,172.58
25/10/2018 21:57,180.031
25/10/2018 21:58,182.729
25/10/2018 21:59,186.17
25/10/2018 22:00,194.694
25/10/2018 22:01,208.916
25/10/2018 22:02,227.912
25/10/2018 22:03,222.503
25/10/2018 22:04,226.288
25/10/2018 22:05,235.233
25/10/2018 22:06,240.048
25/10/2018 22:07,244.845
25/10/2018 22:08,244.305
25/10/2018 22:09,247.516
25/10/2018 22:10,238.031
25/10/2018 22:11,243.935
25/10/2018 22:12,249.892
25/10/2018 22:13,250.777
25/10/2018 22:14,255.028
25/10/2018 22:15,250.779
25/10/2018 22:16,253.6
25/10/2018 22:17,253.704
25/10/2018 22:18,257.385
25/10/2018 22:19,257.561
25/10/2018 22:20,252.198
25/10/2018 22:21,253.543
25/10/2018 22:22,271.162
25/10/2018 22:23,278.178
25/10/2018 22:24,268.284
25/10/2018 22:25,273.507
25/10/2018 22:26,277.639
25/10/2018 22:27,272.818
25/10/2018 22:28,271.345
25/10/2018 22:29,273.531
25/10/2018 22:30,267.845
25/10/2018 22:31,264.8
25/10/2018 22:32,263.225
25/10/2018 22:33,258.81
25/10/2018 22:34,252.623
25/10/2018 22:35,240.975
25/10/2018 22:36,239.689
25/10/2018 22:37,233.556
25/10/2018 22:38,237.193
25/10/2018 22:39,231.986
25/10/2018 22:40,241.432
25/10/2018 22:41,236.84
25/10/2018 22:42,237.04
25/10/2018 22:43,241.088
25/10/2018 22:44,246.624
25/10/2018 22:45,251.093
25/10/2018 22:46,249.778
25/10/2018 22:47,253.505
25/10/2018 22:48,252.092
25/10/2018 22:49,255.261
25/10/2018 22:50,255.348
25/10/2018 22:51,262.88
25/10/2018 22:52,254.203
25/10/2018 22:53,246.189
25/10/2018 22:54,240.148
25/10/2018 22:55,240.878
25/10/2018 22:56,233.739
25/10/2018 22:57,229.955
25/10/2018 22:58,224.827
25/10/2018 22:59,218.489
25/10/2018 23:00,212.278
25/10/2018 23:01,210.34
25/10/2018 23:02,211.268
25/10/2018 23:03,187.193
25/10/2018 23:04,160.838
25/10/2018 23:05,159.237
25/10/2018 23:06,158.894
25/10/2018 23:07,157.004
25/10/2018 23:08,149.083
25/10/2018 23:09,146.639
25/10/2018 23:10,142.911
25/10/2018 23:11,133.046
25/10/2018 23:12,127.127
25/10/2018 23:13,120.841
25/10/2018 23:14,115.006
25/10/2018 23:15,110.727
25/10/2018 23:16,105.843
25/10/2018 23:17,104.145
25/10/2018 23:18,106.24
25/10/2018 23:19,107.496
25/10/2018 23:20,114.308
25/10/2018 23:21,119.47
25/10/2018 23:22,124.622
25/10/2018 23:23,123.535
25/10/2018 23:24,125.485
25/10/2018 23:25,133.512
25/10/2018 23:26,142.414
25/10/2018 23:27,140.605
25/10/2018 23:28,139.133
25/10/2018 23:29,141.907
25/10/2018 23:30,143.459
25/10/2018 23:31,149.323
25/10/2018 23:32,148.829
25/10/2018 23:33,151.784
25/10/2018 23:34,151.184
25/10/2018 23:35,144.274
25/10/2018 23:36,150.089
25/10/2018 23:37,146.989
25/10/2018 23:38,148.185
25/10/2018 23:39,150.148
25/10/2018 23:40,145.574
25/10/2018 23:41,148.823
25/10/2018 23:42,146.225
25/10/2018 23:43,152.05
25/10/2018 23:44,149.542
25/10/2018 23:45,150.32
25/10/2018 23:46,154.863
25/10/2018 23:47,161.713
25/10/2018 23:48,159.934
25/10/2018 23:49,167.439
25/10/2018 23:50,194.859
25/10/2018 23:51,204.43
25/10/2018 23:52,205.884
25/10/2018 23:53,209.274
25/10/2018 23:54,219.659
25/10/2018 23:55,221.749
25/10/2018 23:56,228.188
25/10/2018 23:57,249.507
25/10/2018 23:58,266.902
25/10/2018 23:59,262.644
26/10/2018 00:00,274.911
26/10/2018 00:01,275.571
26/10/2018 00:02,274.193
26/10/2018 00:03,278.844
26/10/2018 00:04,288.856
26/10/2018 00:05,289.936
26/10/2018 00:06,293.788
26/10/2018 00:07,293.266
26/10/2018 00:08,299.509
26/10/2018 00:09,302.059
26/10/2018 00:10,303.487
26/10/2018 00:11,311.16
26/10/2018 00:12,309.884
26/10/2018 00:13,318.022
26/10/2018 00:14,317.703
26/10/2018 00:15,316.191
26/10/2018 00:16,313.376
26/10/2018 00:17,311.512
26/10/2018 00:18,307.522
26/10/2018 00:19,303.026
26/10/2018 00:20,312.18
26/10/2018 00:21,305.007
26/10/2018 00:22,310.432
26/10/2018 00:23,311.38
26/10/2018 00:24,317.345
26/10/2018 00:25,315.971
26/10/2018 00:26,311.582
26/10/2018 00:27,320.068
26/10/2018 00:28,311.225
26/10/2018 00:29,319.28
26/10/2018 00:30,322.19
26/10/2018 00:31,316.615
26/10/2018 00:32,332.136
26/10/2018 00:33,324.93
26/10/2018 00:34,317.621
26/10/2018 00:35,319.811
26/10/2018 00:36,314.972
26/10/2018 00:37,322.371
26/10/2018 00:38,322.949
26/10/2018 00:39,321.045
26/10/2018 00:40,322.706
26/10/2018 00:41,328.549
26/10/2018 00:42,323.417
26/10/2018 00:43,324.48
26/10/2018 00:44,319.34
26/10/2018 00:45,315.411
26/10/2018 00:46,318.519
26/10/2018 00:47,317.715
26/10/2018 00:48,323.819
26/10/2018 00:49,318.043
26/10/2018 00:50,320.117
26/10/2018 00:51,314.875
26/10/2018 00:52,319.629
26/10/2018 00:53,320.193
26/10/2018 00:54,323.638
26/10/2018 00:55,322.711
26/10/2018 00:56,321.441
26/10/2018 00:57,319.804